Location: Gwatt
(46.7204°N, 7.6223°E)
Time: 23:16:53
(UTC+00:00)

Vanguard 2 - Pass Details

Date: 27 January 2021
Orbit: 552 x 2938 km, 32.9° (Epoch: 25 February)

Event Time Altitude Azimuth Distance (km) Brightness Sun altitude
Rises 17:34:57 0° 241° (WSW) 2,719 12.1 -12.0°
Reaches altitude 10° 17:38:08 10° 212° (SSW) 1,915 10.2 -12.5°
Maximum altitude 17:40:08 13° 183° (S) 1,824 9.7 -12.8°
Drops below altitude 10° 17:42:20 10° 155° (SSE) 2,167 9.7 -13.2°
Enters shadow 17:45:51 - 132° (SE) 3,245 10.4 -13.8°
